Galesburg, IL

10:55 AM CDT on March 29, 2017 (GMT -0500)
Galesburg Municipal

Weather History for KGBG - December, 2014

Change the Weather History Date:

Wednesday, December 31, 2014

  Actual Average Record
Temperature  
Mean Temperature 11 °F -  
Max Temperature 21 °F 28 °F 60 °F (1965)
Min Temperature 1 °F 12 °F -14 °F (1967)
Degree Days  
Heating Degree Days 54    
Moisture  
Dew Point 1 °F    
Average Humidity 65    
Maximum Humidity 83    
Minimum Humidity 44    
Precipitation  
Precipitation 0.00 in - - ()
Sea Level Pressure  
Sea Level Pressure 30.46 in    
Wind  
Wind Speed 9 mph (WSW)    
Max Wind Speed 20 mph    
Max Gust Speed 26 mph    
Visibility 10 miles    
Events      
Averages and records for this station are not official NWS values.
T = Trace of Precipitation, MM = Missing Value Source: NWS Daily Summary

Daily Weather History Graph

Daily Weather History Graph

Search for Another Location

Airport or City:

Trip Planner

Search our weather history database for the weather conditions in past years. The results will help you decide how hot, cold, wet, or windy it might be!

Date:

Astronomy

Dec. 31, 2014 Rise Set
Actual Time 7:26 AM CST 4:43 PM CST
Civil Twilight 6:55 AM CST 5:14 PM CST
Nautical Twilight 6:20 AM CST 5:48 PM CST
Astronomical Twilight 5:47 AM CST 6:22 PM CST
Moon 1:35 PM CST (12/31) 2:51 AM CST (12/31)
Length of Visible Light 10h 19m
Length of Day
9h 17m
Waxing Gibbous, 80% of the Moon is Illuminated
Dec 31
Waxing Gibbous
Jan 4
Full
Jan 13
Last Quarter
Jan 20
New
Jan 26
First Quarter

Hourly Weather History & Observations

Time (CST) Temp. Windchill Dew Point Humidity Pressure Visibility Wind Dir Wind Speed Gust Speed Precip Events Conditions
12:15 AM 6.3 °F -5.4 °F -1.3 °F 71% 30.68 in 10.0 mi West 6.9 mph - N/A   Clear
12:35 AM 5.9 °F -7.0 °F -1.3 °F 72% 30.68 in 10.0 mi West 8.1 mph - N/A   Clear
12:55 AM 5.7 °F -8.2 °F -1.3 °F 73% 30.68 in 10.0 mi West 9.2 mph - N/A   Clear
1:15 AM 5.0 °F -6.9 °F -1.3 °F 75% 30.67 in 10.0 mi WNW 6.9 mph - N/A   Clear
1:35 AM 4.6 °F -7.4 °F -1.3 °F 76% 30.67 in 10.0 mi WNW 6.9 mph - N/A   Clear
1:55 AM 4.6 °F -10.4 °F -0.8 °F 78% 30.67 in 10.0 mi West 10.4 mph - N/A   Clear
2:15 AM 4.5 °F -8.7 °F -1.8 °F 75% 30.67 in 10.0 mi WNW 8.1 mph - N/A   Clear
2:35 AM 4.1 °F -8.0 °F -2.0 °F 76% 30.67 in 10.0 mi WNW 6.9 mph - N/A   Clear
2:55 AM 3.6 °F -7.3 °F -2.2 °F 77% 30.66 in 10.0 mi WNW 5.8 mph - N/A   Clear
3:15 AM 2.8 °F -8.2 °F -2.2 °F 79% 30.65 in 10.0 mi West 5.8 mph - N/A   Clear
3:35 AM 2.5 °F -10.0 °F -2.2 °F 81% 30.65 in 10.0 mi West 6.9 mph - N/A   Clear
3:55 AM 2.8 °F -8.2 °F -2.2 °F 79% 30.64 in 10.0 mi West 5.8 mph - N/A   Clear
4:15 AM 2.3 °F -8.8 °F -2.2 °F 81% 30.64 in 10.0 mi West 5.8 mph - N/A   Clear
4:35 AM 2.3 °F -8.8 °F -1.8 °F 83% 30.62 in 10.0 mi West 5.8 mph - N/A   Clear
4:55 AM 2.8 °F -10.7 °F -1.7 °F 81% 30.62 in 10.0 mi West 8.1 mph - N/A   Clear
5:15 AM 2.5 °F -10.0 °F -2.0 °F 81% 30.61 in 10.0 mi West 6.9 mph - N/A   Clear
5:35 AM 2.3 °F -10.2 °F -1.8 °F 83% 30.61 in 10.0 mi West 6.9 mph - N/A   Clear
5:55 AM 2.3 °F -10.2 °F -2.0 °F 82% 30.61 in 10.0 mi West 6.9 mph - N/A   Clear
6:15 AM 2.3 °F -8.8 °F -2.2 °F 81% 30.60 in 10.0 mi West 5.8 mph - N/A   Clear
6:35 AM 1.9 °F -10.6 °F -2.4 °F 82% 30.60 in 10.0 mi West 6.9 mph - N/A   Clear
6:55 AM 1.9 °F -11.8 °F -2.6 °F 81% 30.59 in 10.0 mi West 8.1 mph - N/A   Clear
7:15 AM 2.1 °F -10.4 °F -2.9 °F 79% 30.59 in 10.0 mi West 6.9 mph - N/A   Clear
7:35 AM 1.8 °F -9.5 °F -3.1 °F 80% 30.59 in 10.0 mi West 5.8 mph - N/A   Clear
7:55 AM 2.3 °F -8.8 °F -2.2 °F 81% 30.59 in 10.0 mi West 5.8 mph - N/A   Clear
8:15 AM 3.7 °F -9.6 °F -0.9 °F 81% 30.58 in 10.0 mi WSW 8.1 mph - N/A   Clear
8:35 AM 4.6 °F -7.4 °F -1.3 °F 76% 30.58 in 10.0 mi WSW 6.9 mph - N/A   Clear
8:55 AM 5.7 °F -8.2 °F -1.3 °F 73% 30.58 in 10.0 mi WSW 9.2 mph - N/A   Clear
9:15 AM 6.3 °F -8.4 °F -0.8 °F 73% 30.58 in 10.0 mi West 10.4 mph - N/A   Clear
9:35 AM 7.5 °F -6.0 °F -0.6 °F 70% 30.57 in 10.0 mi SW 9.2 mph - N/A   Clear
9:55 AM 9.1 °F -1.9 °F 0.9 °F 69% 30.57 in 10.0 mi WSW 6.9 mph - N/A   Clear
10:15 AM 9.7 °F -3.3 °F 1.8 °F 70% 30.56 in 10.0 mi SW 9.2 mph - N/A   Clear
10:35 AM 10.9 °F -2.6 °F 2.5 °F 69% 30.55 in 10.0 mi SW 10.4 mph - N/A   Clear
10:55 AM 11.3 °F -2.2 °F 2.1 °F 67% 30.53 in 10.0 mi WSW 10.4 mph 18.4 mph N/A   Clear
11:15 AM 12.9 °F -1.6 °F 3.0 °F 65% 30.52 in 10.0 mi SW 12.7 mph 17.3 mph N/A   Clear
11:35 AM 13.3 °F -2.4 °F 2.8 °F 63% 30.50 in 10.0 mi SW 15.0 mph - N/A   Clear
11:55 AM 14.7 °F -0.5 °F 2.7 °F 59% 30.49 in 10.0 mi WSW 15.0 mph 18.4 mph N/A   Clear
12:15 PM 15.6 °F 0.6 °F 1.9 °F 55% 30.47 in 10.0 mi WSW 15.0 mph - N/A   Clear
12:35 PM 16.9 °F 3.4 °F 2.1 °F 52% 30.45 in 10.0 mi WSW 12.7 mph 17.3 mph N/A   Clear
12:55 PM 18.1 °F 4.4 °F 2.5 °F 51% 30.43 in 10.0 mi SW 13.8 mph 20.7 mph N/A   Clear
1:15 PM 18.7 °F 4.6 °F 2.5 °F 49% 30.41 in 10.0 mi SW 15.0 mph 18.4 mph N/A   Clear
1:35 PM 19.0 °F 5.0 °F 1.9 °F 47% 30.40 in 10.0 mi SW 15.0 mph 20.7 mph N/A   Clear
1:55 PM 19.9 °F 5.2 °F 2.1 °F 46% 30.39 in 10.0 mi SW 17.3 mph 21.9 mph N/A   Clear
2:15 PM 20.3 °F 6.6 °F 2.1 °F 45% 30.38 in 10.0 mi SW 15.0 mph 20.7 mph N/A   Clear
2:35 PM 20.8 °F 5.9 °F 1.9 °F 44% 30.37 in 10.0 mi SW 18.4 mph 24.2 mph N/A   Clear
2:55 PM 20.8 °F 5.5 °F 1.8 °F 44% 30.36 in 10.0 mi SW 19.6 mph 26.5 mph N/A   Clear
3:15 PM 21.2 °F 8.3 °F 2.5 °F 44% 30.35 in 10.0 mi SW 13.8 mph 24.2 mph N/A   Clear
3:35 PM 21.0 °F 6.2 °F 2.5 °F 45% 30.35 in 10.0 mi SW 18.4 mph 24.2 mph N/A   Clear
3:55 PM 21.0 °F 9.3 °F 2.8 °F 45% 30.34 in 10.0 mi SW 11.5 mph 21.9 mph N/A   Clear
4:15 PM 20.5 °F 6.4 °F 3.2 °F 47% 30.33 in 10.0 mi SW 16.1 mph 21.9 mph N/A   Clear
4:35 PM 19.9 °F 6.2 °F 2.8 °F 48% 30.32 in 10.0 mi SW 15.0 mph 25.3 mph N/A   Clear
4:55 PM 19.4 °F 5.0 °F 3.2 °F 49% 30.31 in 10.0 mi SW 16.1 mph 19.6 mph N/A   Clear
5:15 PM 18.3 °F 5.2 °F 3.9 °F 53% 30.31 in 10.0 mi SSW 12.7 mph - N/A   Clear
5:35 PM 18.0 °F 4.8 °F 3.9 °F 54% 30.31 in 10.0 mi SW 12.7 mph - N/A   Clear
5:55 PM 17.6 °F 3.7 °F 2.7 °F 52% 30.30 in 10.0 mi SW 13.8 mph 19.6 mph N/A   Clear
6:15 PM 17.2 °F 2.7 °F 3.0 °F 54% 30.28 in 10.0 mi SSW 15.0 mph - N/A   Clear
6:35 PM 17.2 °F 3.3 °F 2.8 °F 53% 30.27 in 10.0 mi SW 13.8 mph - N/A   Clear
6:55 PM 17.6 °F 3.7 °F 3.2 °F 53% 30.27 in 10.0 mi SSW 13.8 mph - N/A   Clear
7:15 PM 16.2 °F 3.9 °F 3.4 °F 57% 30.27 in 10.0 mi SSW 10.4 mph - N/A   Clear
7:35 PM 15.8 °F 3.4 °F 3.9 °F 60% 30.26 in 10.0 mi SW 10.4 mph - N/A   Clear
7:55 PM 15.8 °F 2.7 °F 4.3 °F 60% 30.27 in 10.0 mi SW 11.5 mph - N/A   Clear
8:15 PM 16.5 °F 4.3 °F 4.6 °F 60% 30.27 in 10.0 mi SW 10.4 mph - N/A   Clear
8:35 PM 17.2 °F 5.2 °F 4.8 °F 58% 30.27 in 10.0 mi SW 10.4 mph - N/A   Clear
8:55 PM 16.9 °F 4.8 °F 4.8 °F 59% 30.27 in 10.0 mi SW 10.4 mph - N/A   Clear
9:15 PM 16.3 °F 4.1 °F 5.0 °F 61% 30.27 in 10.0 mi SW 10.4 mph - N/A   Clear
9:35 PM 15.8 °F 4.2 °F 5.5 °F 64% 30.27 in 10.0 mi SW 9.2 mph - N/A   Clear
9:55 PM 15.8 °F 4.2 °F 5.5 °F 64% 30.26 in 10.0 mi SW 9.2 mph - N/A   Clear
10:15 PM 15.8 °F 3.4 °F 5.7 °F 64% 30.25 in 10.0 mi SW 10.4 mph - N/A   Clear
10:35 PM 16.0 °F 2.9 °F 5.9 °F 65% 30.24 in 10.0 mi SW 11.5 mph - N/A   Clear
10:55 PM 15.8 °F 3.4 °F 5.0 °F 62% 30.24 in 10.0 mi SW 10.4 mph - N/A   Clear
11:15 PM 16.2 °F 3.2 °F 5.5 °F 63% 30.24 in 10.0 mi SW 11.5 mph - N/A   Clear
11:35 PM 16.2 °F 3.2 °F 5.0 °F 62% 30.23 in 10.0 mi SW 11.5 mph 17.3 mph N/A   Clear
11:55 PM 15.8 °F 2.7 °F 5.2 °F 63% 30.23 in 10.0 mi SW 11.5 mph 18.4 mph N/A   Clear